TimeEST,TemperatureF,Dew PointF,Humidity,Sea Level PressureIn,VisibilityMPH,Wind Direction,Wind SpeedMPH,Gust SpeedMPH,PrecipitationIn,Events,Conditions,WindDirDegrees,DateUTC
12:53 AM,21.0,16.0,81,30.28,10.0,SSE,11.5,-,N/A,,Clear,160,2013-02-10 05:53:00
1:53 AM,19.0,15.1,85,30.25,10.0,South,8.1,-,N/A,,Clear,170,2013-02-10 06:53:00
2:53 AM,19.4,14.0,80,30.20,10.0,SE,6.9,-,N/A,,Clear,140,2013-02-10 07:53:00
3:53 AM,19.9,15.1,81,30.22,10.0,SE,9.2,-,N/A,,Clear,140,2013-02-10 08:53:00
4:53 AM,19.9,15.1,81,30.22,10.0,SSE,6.9,-,N/A,,Clear,150,2013-02-10 09:53:00
5:53 AM,21.9,15.1,75,30.22,10.0,SSE,9.2,-,N/A,,Clear,150,2013-02-10 10:53:00
6:53 AM,18.0,12.9,81,30.22,10.0,SSE,6.9,-,N/A,,Clear,150,2013-02-10 11:53:00
7:53 AM,19.9,14.0,78,30.20,8.0,SSE,8.1,-,N/A,,Clear,150,2013-02-10 12:53:00
8:53 AM,24.1,17.1,75,30.15,9.0,ESE,6.9,-,N/A,,Clear,110,2013-02-10 13:53:00
9:53 AM,28.9,19.0,67,30.14,10.0,South,9.2,-,N/A,,Mostly Cloudy,170,2013-02-10 14:53:00
10:53 AM,32.0,21.0,64,30.14,10.0,SSE,13.8,-,N/A,,Overcast,160,2013-02-10 15:53:00
11:53 AM,35.1,21.9,59,30.11,10.0,SSE,9.2,-,N/A,,Overcast,150,2013-02-10 16:53:00
12:53 PM,37.0,21.9,54,30.03,10.0,SE,9.2,-,N/A,,Overcast,130,2013-02-10 17:53:00
1:53 PM,37.9,24.1,57,30.01,10.0,SSE,10.4,-,N/A,,Overcast,160,2013-02-10 18:53:00
2:53 PM,37.9,24.1,57,29.98,10.0,SE,9.2,-,N/A,,Overcast,130,2013-02-10 19:53:00
3:53 PM,39.0,25.0,57,29.93,10.0,SE,11.5,-,N/A,,Overcast,130,2013-02-10 20:53:00
4:53 PM,37.9,26.1,62,29.90,10.0,SE,11.5,-,N/A,,Overcast,130,2013-02-10 21:53:00
5:53 PM,37.9,27.0,65,29.86,10.0,SE,12.7,-,0.00,Rain,Light Rain,140,2013-02-10 22:53:00
6:53 PM,37.0,28.0,70,29.83,8.0,SSE,19.6,32.2,0.00,Rain,Light Rain,150,2013-02-10 23:53:00
7:53 PM,37.0,28.9,73,29.82,10.0,SSE,17.3,26.5,0.02,,Overcast,150,2013-02-11 00:53:00
8:53 PM,37.9,30.9,76,29.76,5.0,SSE,18.4,26.5,0.00,Rain,Light Rain,150,2013-02-11 01:53:00
9:53 PM,37.9,34.0,86,29.73,4.0,South,16.1,24.2,0.08,Rain,Light Rain,170,2013-02-11 02:53:00
10:27 PM,39.2,33.8,81,29.69,8.0,South,16.1,23.0,0.01,Rain,Light Rain,170,2013-02-11 03:27:00
10:53 PM,39.9,34.0,79,29.70,10.0,South,21.9,27.6,0.02,Rain,Light Rain,170,2013-02-11 03:53:00
11:53 PM,39.9,35.1,83,29.68,10.0,South,17.3,-,0.00,,Overcast,170,2013-02-11 04:53:00